This is the latest recevied weather packets stored in our database for station/object N1TKS. If no packets are shown the sender has not sent any weather packets the latest 10 day(s).
| Time | Temp. | Humidity | Pressure | Rain* | Wind** | Luminosity | Snow |
|---|---|---|---|---|---|---|---|
| 1777829514 | 12.22° C | 38% | 1011.2 hPa | 0 mm | - | - | - |
| 1777829213 | 12.22° C | 40% | 1011.1 hPa | 0 mm | - | - | - |
| 1777828948 | 12.22° C | 38% | 1011.1 hPa | 0 mm | - | - | - |
| 1777828913 | 12.22° C | 38% | 1011.1 hPa | 0 mm | - | - | - |
| 1777828667 | 12.22° C | 38% | 1011.1 hPa | 0 mm | - | - | - |
| 1777828614 | 12.22° C | 38% | 1011.1 hPa | 0 mm | - | - | - |
| 1777828356 | 12.22° C | 37% | 1011.1 hPa | 0 mm | - | - | - |
| 1777828314 | 12.22° C | 37% | 1011.1 hPa | 0 mm | - | - | - |
| 1777828015 | 12.22° C | 38% | 1011.1 hPa | 0 mm | - | - | - |
| 1777827115 | 12.22° C | 38% | 1011.2 hPa | 0 mm | - | - | - |
| 1777826679 | 12.22° C | 38% | 1011.3 hPa | 0 mm | - | - | - |
| 1777826514 | 12.22° C | 38% | 1011.3 hPa | 0 mm | - | - | - |
| 1777826217 | 12.22° C | 37% | 1011.2 hPa | 0 mm | - | - | - |
| 1777825700 | 11.67° C | 40% | 1011.4 hPa | 0 mm | - | - | - |
| 1777825614 | 11.67° C | 40% | 1011.4 hPa | 0 mm | - | - | - |
| 1777825313 | 11.67° C | 41% | 1011.4 hPa | 0 mm | - | - | - |
| 1777825013 | 11.11° C | 40% | 1011.5 hPa | 0 mm | - | - | - |
| 1777824716 | 11.67° C | 40% | 1011.5 hPa | 0 mm | - | - | - |
| 1777824417 | 11.11° C | 44% | 1011.5 hPa | 0 mm | - | - | - |
| 1777824116 | 11.11° C | 44% | 1011.6 hPa | 0 mm | - | - | - |
| 1777823814 | 11.11° C | 44% | 1011.6 hPa | 0 mm | - | - | - |
| 1777823514 | 11.11° C | 44% | 1011.6 hPa | 0 mm | - | - | - |
| 1777823214 | 11.11° C | 44% | 1011.6 hPa | 0 mm | - | - | - |
| 1777822914 | 11.11° C | 44% | 1011.7 hPa | 0 mm | - | - | - |
| 1777822314 | 10.56° C | 44% | 1011.7 hPa | 0 mm | - | - | - |
* Rain latest hour (hover to see other rain measurements)
** Current wind speed in m/s (hover to see current wind gust speed)